Погода в Покровском

Россия / Орловская область     52°36′28″N   36°52′14″E
темп.,
°C
ветер,
м/с
пор.,
м/с
влажн.,
%
обл.,
%
осадки,
мм/ч
давл.,
гПа
погр.,
м
28 ноября, вс
вс2800:00+4ю51298100 0.0 1004315
03:00+4ююз51198100 0.0 1004334
06:00+5ююз4109798 0.0 1004254
09:00+4юз379866 0.0 1006192
12:00+5зюз368658 0.0 1008283
15:00+5ю248415 0.0 1008128
18:00+4ююв3696100 0.0 1009100
21:00+4ююв5994100 0.0 1009304
29 ноября, пн
пн2900:00+5юв41092100 0.0 1008292
03:00+4юв41096100 0.0 1006232
06:00+4вюв51098100 0.1 1003237
09:00+5в51198100 2.1 1000379
12:00+7ююв41199100 0.6 998387
15:00+8ю51297100 0.6 996577
18:00+8ююв51295100 0.1 994486
21:00+7вюв61396100 0.9 988495
30 ноября, вт
вт3000:00+9ююв81796100 5.9 9811063
03:00+8ююз132090100 9.3 9771302
06:00+5юз142092100 7.9 980977
09:00+1зюз142396100 13.4 9851133
12:00+1зюз132183100 0.8 9881137
15:00+1зюз111879100 0.8 9901162
18:00+1юз9168394 0.0 9911230
21:000юз8159298 0.1 9921018
1 декабря, ср
ср100:00−1зюз91381100 0.1 9921028
03:00−2зюз8128596 0.3 993995
06:00−2з81386100 0.1 9921106
09:00−2з71293100 0.6 9941029
12:00−3з81293100 1.3 996998
15:00−3з81290100 2.0 997946
18:00−3з71284100 0.1 1000843
21:00−4з71288100 0.1 1001704
2 декабря, чт
чт200:00−5зсз6119095 0.0 1003600
03:00−6зюз499181 0.0 1005380
06:00−5юз3893100 0.0 1006301
09:00−4ю51287100 0.0 1006437
12:00−2ююз71695100 0.3 1004670
15:000ююз81594100 1.3 1003654
18:00+1юз7158990 0.2 1004550
21:00+1юз61590100 0.2 1005436